Flag for Tunisia Weather past 2 weeks in Tunis, Tunisia

Now
61 °F

Passing clouds.


Feels Like: 61 °F
Forecast: 61 / 74 °F
Wind: 3 mph from West

Location: Tunis-Carthage

Current Time: May 25, 2015 at 1:03:33 AM

Latest Report: May 25, 2015 at 12:30 AM


Visibility: N/A

Pressure: 30.01 "Hg

Humidity: 72%

Dew point: 52 °F

Location of TunisLocation

Historic Weather in Tunis — Graph

°F

Tunis temperature yesterday

Maximum temperature yesterday: 77 °F (at 12:00 PM)
Minimum temperature yesterday: 59 °F (at 4:30 AM)
Average temperature yesterday: 68 °F

Past Weeks' High & Low Weather Summary

 TemperatureHumidityPressure
High102 °F (May 15, 1:30 PM)100% (May 13, 3:30 AM)30.27 "Hg (May 13, 3:30 AM)
Low55 °F (May 13, 3:30 AM)11% (May 14, 4:00 PM)29.74 "Hg (May 15, 1:30 PM)
Average70 °F55%30.01 "Hg
* Reported Midnight between May 9 and May 10 — Midnight between May 24 and May 25, Tunis, Weather by CustomWeather, © 2015

Note: Actual official high and low records may vary slightly from our data, if they occured in-between our weather recording intervals... More about our weather records

Advertising

Tunis weather history for previous 24 hours

 ConditionsComfort  
Time TempWeatherWind HumidityBarometerVisibility
12:00 AM
Mon, May 25
63 °FPassing clouds.5 mph68%30.01 "HgN/A
11:30 PM
Sun, May 24
63 °FPassing clouds.5 mph73%30.01 "HgN/A
11:00 PM63 °FPassing clouds.2 mph68%30.01 "HgN/A
10:30 PM64 °FPassing clouds.No wind64%30.01 "HgN/A
10:00 PM64 °FPassing clouds.No wind64%30.01 "HgN/A
9:30 PM64 °FPassing clouds.No wind60%30.01 "HgN/A
9:00 PM64 °FPassing clouds.2 mph64%30.01 "HgN/A
8:30 PM66 °FPassing clouds.10 mph60%30.01 "HgN/A
8:00 PM66 °FPassing clouds.5 mph60%30.01 "HgN/A
7:30 PM66 °FPassing clouds.5 mph60%30.01 "HgN/A
7:00 PM68 °FPassing clouds.13 mph56%29.98 "HgN/A
6:30 PM68 °FPassing clouds.16 mph53%29.98 "HgN/A
6:00 PM72 °FPassing clouds.16 mph47%29.95 "HgN/A
5:30 PM73 °FPassing clouds.17 mph41%29.95 "HgN/A
5:00 PM73 °FPassing clouds.17 mph41%29.98 "HgN/A
4:30 PM75 °FPassing clouds.17 mph39%29.98 "HgN/A
4:00 PM77 °FPassing clouds.17 mph36%29.98 "HgN/A
3:30 PM77 °FPassing clouds.8 mph42%29.98 "HgN/A
3:00 PM77 °FPassing clouds.9 mph44%29.98 "HgN/A
2:30 PM77 °FPassing clouds.10 mph47%29.98 "HgN/A
2:00 PM75 °FPassing clouds.8 mph44%29.98 "HgN/A
1:30 PM73 °FPassing clouds.8 mph50%30.01 "HgN/A
1:00 PM75 °FPassing clouds.8 mph47%30.01 "HgN/A
12:30 PM75 °FPassing clouds.7 mph36%30.01 "HgN/A
12:00 PM77 °FPassing clouds.7 mph34%30.01 "HgN/A
11:30 AM75 °FPassing clouds.8 mph36%30.01 "HgN/A
11:00 AM75 °FPassing clouds.8 mph39%30.01 "HgN/A
10:30 AM75 °FPassing clouds.7 mph39%30.01 "HgN/A
10:00 AM73 °FPassing clouds.9 mph41%30.01 "HgN/A
9:30 AM72 °FPassing clouds.10 mph44%30.01 "HgN/A
9:00 AM70 °FPassing clouds.10 mph46%30.01 "HgN/A
8:30 AM68 °FPassing clouds.9 mph49%30.01 "HgN/A
8:00 AM66 °FPassing clouds.8 mph49%30.01 "HgN/A
7:30 AM64 °FPassing clouds.8 mph52%30.01 "HgN/A
7:00 AM63 °FPassing clouds.9 mph52%30.01 "HgN/A
6:30 AM61 °FScattered clouds.9 mph55%30.01 "HgN/A
6:00 AM61 °FScattered clouds.9 mph55%30.01 "HgN/A
5:30 AM59 °FScattered clouds.8 mph55%30.01 "HgN/A
5:00 AM59 °FPassing clouds.8 mph55%29.98 "HgN/A
4:30 AM59 °FPassing clouds.8 mph59%29.98 "HgN/A
4:00 AM61 °FPassing clouds.8 mph55%29.98 "HgN/A
2:30 AM61 °FPassing clouds.7 mph55%30.01 "HgN/A
2:00 AM61 °FPassing clouds.7 mph55%30.01 "HgN/A
1:30 AM61 °FPassing clouds.7 mph55%30.01 "HgN/A
1:00 AM63 °FPassing clouds.5 mph52%30.01 "HgN/A
Weather by CustomWeather, © 2015

See weather overviewHow to use our weather pages